TimeCDT,TemperatureF,Dew PointF,Humidity,Sea Level PressureIn,VisibilityMPH,Wind Direction,Wind SpeedMPH,Gust SpeedMPH,PrecipitationIn,Events,Conditions,WindDirDegrees,DateUTC
12:13 AM,63.5,56.3,77,29.98,10.0,SSE,5.8,-,N/A,,Overcast,150,2013-08-05 05:13:00
12:33 AM,63.7,56.5,77,29.98,10.0,SSE,9.2,-,N/A,Thunderstorm,Overcast,150,2013-08-05 05:33:00
12:53 AM,62.2,57.9,86,30.05,10.0,West,10.4,-,N/A,Rain-Thunderstorm,Thunderstorms and Rain,280,2013-08-05 05:53:00
1:13 AM,61.2,59.0,93,30.02,5.0,SSW,6.9,-,0.05,Rain-Thunderstorm,Heavy Thunderstorms and Rain,200,2013-08-05 06:13:00
1:33 AM,60.4,59.4,96,29.97,7.0,SSE,13.8,-,0.15,Rain-Thunderstorm,Rain,160,2013-08-05 06:33:00
1:53 AM,60.1,59.0,96,29.90,10.0,SSE,18.4,24.2,0.18,Rain,Light Rain,160,2013-08-05 06:53:00
2:13 AM,59.9,58.5,95,29.91,10.0,SSE,11.5,20.7,N/A,,Scattered Clouds,160,2013-08-05 07:13:00
2:32 AM,59.9,58.6,96,29.94,10.0,SSW,8.1,-,N/A,,Clear,200,2013-08-05 07:32:00
2:53 AM,59.9,58.6,96,29.94,10.0,South,6.9,-,N/A,,Clear,190,2013-08-05 07:53:00
3:13 AM,60.1,59.0,96,29.94,10.0,South,5.8,-,N/A,,Scattered Clouds,190,2013-08-05 08:13:00
3:32 AM,60.4,59.2,96,29.94,10.0,South,4.6,-,N/A,,Overcast,170,2013-08-05 08:32:00
3:53 AM,60.8,59.2,94,29.94,10.0,Calm,Calm,-,N/A,,Overcast,0,2013-08-05 08:53:00
4:13 AM,60.8,59.5,96,29.92,10.0,Calm,Calm,-,N/A,,Overcast,0,2013-08-05 09:13:00
4:32 AM,60.8,59.9,97,29.92,10.0,Calm,Calm,-,N/A,,Overcast,0,2013-08-05 09:32:00
4:53 AM,60.8,60.1,97,29.92,10.0,Calm,Calm,-,N/A,,Overcast,0,2013-08-05 09:53:00
5:13 AM,61.0,60.3,97,29.92,10.0,South,3.5,-,N/A,,Overcast,190,2013-08-05 10:13:00
5:32 AM,61.3,60.8,98,29.91,10.0,South,3.5,-,N/A,,Overcast,170,2013-08-05 10:32:00
5:53 AM,61.7,60.8,97,29.91,10.0,SSW,3.5,-,N/A,,Overcast,200,2013-08-05 10:53:00
6:13 AM,61.9,61.0,97,29.91,10.0,South,3.5,-,N/A,,Overcast,190,2013-08-05 11:13:00
6:32 AM,62.2,61.3,97,29.91,10.0,SSW,4.6,-,N/A,,Overcast,200,2013-08-05 11:32:00
6:53 AM,62.6,61.3,96,29.91,10.0,SSW,4.6,-,N/A,,Overcast,210,2013-08-05 11:53:00
7:13 AM,62.8,61.7,96,29.91,10.0,SSW,5.8,-,N/A,,Overcast,200,2013-08-05 12:13:00
7:33 AM,63.5,61.7,94,29.90,10.0,SSW,5.8,-,N/A,,Overcast,210,2013-08-05 12:33:00
7:53 AM,63.0,61.5,95,29.90,10.0,SW,4.6,-,N/A,,Overcast,220,2013-08-05 12:53:00
8:13 AM,63.5,61.7,94,29.90,10.0,SSW,4.6,-,N/A,,Overcast,210,2013-08-05 13:13:00
8:33 AM,63.9,61.7,93,29.90,10.0,SSW,5.8,-,N/A,,Overcast,210,2013-08-05 13:33:00
8:53 AM,64.0,61.7,92,29.90,10.0,SW,5.8,-,N/A,,Overcast,220,2013-08-05 13:53:00
9:13 AM,65.5,62.2,89,29.90,10.0,SSW,6.9,-,N/A,,Overcast,200,2013-08-05 14:13:00
9:33 AM,66.4,62.2,86,29.90,10.0,SSW,8.1,-,N/A,,Overcast,210,2013-08-05 14:33:00
9:53 AM,67.8,62.6,83,29.89,10.0,SSW,5.8,-,N/A,,Overcast,210,2013-08-05 14:53:00
10:13 AM,68.2,62.8,83,29.88,10.0,SW,6.9,-,N/A,,Overcast,220,2013-08-05 15:13:00
10:33 AM,68.2,62.4,82,29.87,10.0,SW,5.8,-,N/A,,Overcast,230,2013-08-05 15:33:00
10:53 AM,69.1,61.7,77,29.87,10.0,West,4.6,-,N/A,,Overcast,280,2013-08-05 15:53:00
11:12 AM,70.5,62.2,75,29.87,10.0,West,6.9,-,N/A,,Mostly Cloudy,270,2013-08-05 16:12:00
11:33 AM,71.8,61.9,71,29.87,10.0,WSW,9.2,-,N/A,,Mostly Cloudy,250,2013-08-05 16:33:00
11:53 AM,70.7,61.7,73,29.87,10.0,West,5.8,-,N/A,,Overcast,270,2013-08-05 16:53:00
12:12 PM,71.1,61.0,70,29.88,10.0,West,5.8,-,N/A,,Overcast,280,2013-08-05 17:12:00
12:33 PM,71.8,61.5,70,29.88,10.0,WNW,6.9,-,N/A,,Overcast,290,2013-08-05 17:33:00
12:53 PM,72.7,61.2,67,29.87,10.0,West,9.2,-,N/A,,Overcast,280,2013-08-05 17:53:00
1:12 PM,74.5,61.5,64,29.87,10.0,West,11.5,16.1,N/A,,Scattered Clouds,270,2013-08-05 18:12:00
1:33 PM,74.5,62.2,66,29.87,10.0,West,9.2,-,N/A,,Mostly Cloudy,280,2013-08-05 18:33:00
1:53 PM,74.8,61.7,64,29.87,10.0,WNW,9.2,-,N/A,,Scattered Clouds,290,2013-08-05 18:53:00
2:12 PM,75.6,61.7,62,29.87,10.0,West,9.2,-,N/A,,Scattered Clouds,280,2013-08-05 19:12:00
2:33 PM,75.2,61.5,62,29.86,10.0,West,8.1,-,N/A,,Mostly Cloudy,270,2013-08-05 19:33:00
2:53 PM,75.2,62.6,65,29.86,10.0,WNW,10.4,-,N/A,,Mostly Cloudy,290,2013-08-05 19:53:00
3:12 PM,75.6,61.9,62,29.86,10.0,WNW,12.7,-,N/A,,Scattered Clouds,300,2013-08-05 20:12:00
3:33 PM,74.8,61.9,64,29.86,10.0,NW,12.7,-,N/A,,Mostly Cloudy,310,2013-08-05 20:33:00
3:53 PM,74.7,61.3,63,29.87,10.0,West,16.1,19.6,N/A,,Mostly Cloudy,280,2013-08-05 20:53:00
4:12 PM,75.2,61.0,61,29.87,10.0,West,12.7,19.6,N/A,,Scattered Clouds,280,2013-08-05 21:12:00
4:33 PM,73.8,60.8,64,29.86,10.0,WNW,12.7,-,N/A,,Scattered Clouds,300,2013-08-05 21:33:00
4:52 PM,73.8,60.3,63,29.86,10.0,WNW,13.8,17.3,N/A,,Scattered Clouds,290,2013-08-05 21:52:00
5:13 PM,72.5,59.7,64,29.86,10.0,NW,15.0,-,N/A,,Scattered Clouds,310,2013-08-05 22:13:00
5:33 PM,72.5,59.2,63,29.85,10.0,WNW,13.8,-,N/A,,Scattered Clouds,290,2013-08-05 22:33:00
5:52 PM,71.8,58.3,62,29.85,10.0,WNW,11.5,16.1,N/A,,Clear,290,2013-08-05 22:52:00
6:13 PM,70.9,57.9,63,29.85,10.0,West,10.4,-,N/A,,Clear,280,2013-08-05 23:13:00
6:33 PM,70.7,58.3,65,29.85,10.0,WNW,11.5,-,N/A,,Clear,300,2013-08-05 23:33:00
6:52 PM,70.3,58.1,65,29.85,10.0,NW,11.5,-,N/A,,Scattered Clouds,310,2013-08-05 23:52:00
7:13 PM,69.6,57.6,65,29.85,10.0,WNW,11.5,-,N/A,,Scattered Clouds,300,2013-08-06 00:13:00
7:33 PM,68.7,57.2,67,29.85,10.0,NW,12.7,-,N/A,,Clear,310,2013-08-06 00:33:00
7:53 PM,68.2,56.7,67,29.84,10.0,NW,10.4,-,N/A,,Clear,320,2013-08-06 00:53:00
8:13 PM,67.1,56.7,69,29.84,10.0,NW,8.1,-,N/A,,Clear,310,2013-08-06 01:13:00
8:33 PM,65.8,56.8,73,29.84,10.0,NW,5.8,-,N/A,,Clear,310,2013-08-06 01:33:00
8:53 PM,64.2,57.0,77,29.85,10.0,WNW,4.6,-,N/A,,Clear,300,2013-08-06 01:53:00
9:13 PM,61.5,57.2,86,29.85,10.0,West,4.6,-,N/A,,Clear,270,2013-08-06 02:13:00
9:32 PM,60.1,56.8,89,29.86,10.0,Calm,Calm,-,N/A,,Clear,0,2013-08-06 02:32:00
9:53 PM,59.2,56.7,91,29.87,10.0,Calm,Calm,-,N/A,,Clear,0,2013-08-06 02:53:00
10:13 PM,59.2,56.5,91,29.87,10.0,Calm,Calm,-,N/A,,Clear,0,2013-08-06 03:13:00
10:32 PM,59.4,55.9,88,29.87,10.0,Calm,Calm,-,N/A,,Clear,0,2013-08-06 03:32:00
10:53 PM,58.5,56.3,93,29.88,10.0,Calm,Calm,-,N/A,,Clear,0,2013-08-06 03:53:00
11:13 PM,58.6,55.6,90,29.88,10.0,Calm,Calm,-,N/A,,Clear,0,2013-08-06 04:13:00
11:33 PM,57.4,55.4,93,29.88,10.0,Calm,Calm,-,N/A,,Clear,0,2013-08-06 04:33:00
11:53 PM,55.9,54.5,95,29.88,10.0,West,3.5,-,N/A,,Clear,260,2013-08-06 04:53:00